• In Hungary
  • List of Countries
  • For 7 days
  • Water Temperature
  • Satellite Maps
  • Weather Map
  • News
  • Weather Widgets
  • user-avatar
    Login

    Hourly Weather Podedwor

    Today, 22 September, Saturday

    Time Temperature Precipitation Wind Pressure Humidity
    00:00 +19°C° 0 mm 4 mps 737 mmHg 62%
    01:00 +19°C° 0 mm 5 mps 737 mmHg 63%
    02:00 +17°C° 0.6 mm 5 mps 738 mmHg 69%
    03:00 +15°C° 0.6 mm 6 mps 739 mmHg 75%
    04:00 +14°C° 0.6 mm 7 mps 740 mmHg 82%
    05:00 +13°C° 0.7 mm 6 mps 740 mmHg 82%
    06:00 +13°C° 0.7 mm 5 mps 741 mmHg 82%
    07:00 +12°C° 0.7 mm 3 mps 742 mmHg 81%
    08:00 +13°C° 0 mm 4 mps 742 mmHg 77%
    09:00 +13°C° 0 mm 4 mps 742 mmHg 72%
    10:00 +14°C° 0 mm 4 mps 743 mmHg 67%
    11:00 +15°C° 0 mm 4 mps 743 mmHg 59%
    12:00 +17°C° 0 mm 4 mps 743 mmHg 52%
    13:00 +17°C° 0 mm 5 mps 742 mmHg 45%
    14:00 +17°C° 0 mm 5 mps 742 mmHg 44%
    15:00 +17°C° 0 mm 5 mps 742 mmHg 44%
    16:00 +17°C° 0 mm 5 mps 742 mmHg 44%
    17:00 +17°C° 0 mm 4 mps 742 mmHg 48%
    18:00 +16°C° 0 mm 3 mps 742 mmHg 51%
    19:00 +14°C° 0 mm 2 mps 742 mmHg 55%
    20:00 +14°C° 0 mm 2 mps 742 mmHg 57%
    21:00 +13°C° 0 mm 2 mps 743 mmHg 58%
    22:00 +13°C° 0 mm 2 mps 743 mmHg 59%
    23:00 +13°C° 0 mm 2 mps 743 mmHg 61%

    Tomorrow, 23 September, Sunday

    Time Temperature Precipitation Wind Pressure Humidity
    00:00 +11°C° 0 mm 3 mps 743 mmHg 63%
    01:00 +11°C° 0 mm 3 mps 742 mmHg 65%
    02:00 +11°C° 0 mm 3 mps 742 mmHg 66%
    03:00 +11°C° 0 mm 3 mps 742 mmHg 68%
    04:00 +11°C° 0 mm 3 mps 742 mmHg 69%
    05:00 +11°C° 0 mm 4 mps 742 mmHg 68%
    06:00 +12°C° 0 mm 4 mps 741 mmHg 67%
    07:00 +12°C° 0 mm 5 mps 741 mmHg 66%
    08:00 +13°C° 0 mm 5 mps 741 mmHg 61%
    09:00 +15°C° 0 mm 5 mps 741 mmHg 56%
    10:00 +16°C° 0 mm 6 mps 741 mmHg 51%
    11:00 +16°C° 0 mm 5 mps 741 mmHg 52%
    12:00 +16°C° 0 mm 5 mps 741 mmHg 53%
    13:00 +16°C° 0 mm 5 mps 740 mmHg 55%
    14:00 +15°C° 0 mm 5 mps 740 mmHg 59%
    15:00 +15°C° 0 mm 4 mps 739 mmHg 63%
    16:00 +14°C° 0 mm 3 mps 738 mmHg 67%
    17:00 +14°C° 0.3 mm 3 mps 738 mmHg 72%
    18:00 +13°C° 0.3 mm 3 mps 737 mmHg 78%
    19:00 +13°C° 0.3 mm 3 mps 736 mmHg 83%
    20:00 +13°C° 0.3 mm 4 mps 735 mmHg 83%
    21:00 +13°C° 0.3 mm 4 mps 734 mmHg 83%
    22:00 +13°C° 0.3 mm 5 mps 732 mmHg 82%
    23:00 +14°C° 0.8 mm 6 mps 731 mmHg 81%

    Day after tomorrow, 24 September, Monday

    Time Temperature Precipitation Wind Pressure Humidity
    00:00 +15°C° 0.8 mm 7 mps 729 mmHg 79%
    01:00 +16°C° 0.8 mm 9 mps 727 mmHg 78%
    02:00 +16°C° 2.4 mm 9 mps 727 mmHg 77%
    03:00 +14°C° 2.4 mm 10 mps 727 mmHg 77%
    04:00 +14°C° 2.4 mm 10 mps 727 mmHg 77%
    05:00 +12°C° 0.5 mm 11 mps 729 mmHg 78%
    06:00 +9°C° 0.5 mm 11 mps 731 mmHg 78%
    07:00 +7°C° 0.5 mm 11 mps 733 mmHg 79%
    08:00 +8°C° 0.1 mm 11 mps 735 mmHg 77%
    09:00 +8°C° 0.1 mm 11 mps 737 mmHg 75%
    10:00 +9°C° 0.1 mm 11 mps 738 mmHg 73%
    11:00 +9°C° 0.2 mm 11 mps 739 mmHg 67%
    12:00 +9°C° 0.2 mm 11 mps 740 mmHg 62%
    13:00 +11°C° 0.2 mm 11 mps 741 mmHg 56%
    14:00 +11°C° 0.1 mm 11 mps 741 mmHg 55%
    15:00 +9°C° 0.1 mm 10 mps 742 mmHg 54%
    16:00 +9°C° 0.1 mm 10 mps 742 mmHg 53%
    17:00 +8°C° 0 mm 9 mps 743 mmHg 57%
    18:00 +9°C° 0 mm 8 mps 743 mmHg 60%
    19:00 +8°C° 0 mm 7 mps 744 mmHg 64%
    20:00 +6°C° 0 mm 7 mps 745 mmHg 65%
    21:00 +7°C° 0 mm 6 mps 745 mmHg 66%
    22:00 +7°C° 0 mm 6 mps 746 mmHg 67%
    23:00 +6°C° 0 mm 5 mps 746 mmHg 68%

    25 September, Tuesday

    Time Temperature Precipitation Wind Pressure Humidity
    00:00 +6°C° 0 mm 5 mps 747 mmHg 70%
    01:00 +6°C° 0 mm 5 mps 747 mmHg 71%
    02:00 +5°C° 0 mm 5 mps 748 mmHg 72%
    03:00 +5°C° 0 mm 5 mps 748 mmHg 73%
    04:00 +5°C° 0 mm 5 mps 748 mmHg 74%
    05:00 +5°C° 0 mm 5 mps 749 mmHg 74%
    06:00 +5°C° 0 mm 5 mps 750 mmHg 73%
    07:00 +4°C° 0 mm 6 mps 750 mmHg 73%
    08:00 +7°C° 0 mm 6 mps 751 mmHg 64%
    09:00 +8°C° 0 mm 6 mps 751 mmHg 56%
    10:00 +10°C° 0 mm 7 mps 752 mmHg 48%
    11:00 +10°C° 0 mm 6 mps 752 mmHg 45%
    12:00 +11°C° 0 mm 6 mps 752 mmHg 42%
    13:00 +11°C° 0 mm 6 mps 752 mmHg 39%
    14:00 +11°C° 0 mm 6 mps 752 mmHg 40%
    15:00 +11°C° 0 mm 6 mps 752 mmHg 41%
    16:00 +12°C° 0 mm 5 mps 752 mmHg 43%
    17:00 +9°C° 0 mm 5 mps 752 mmHg 47%
    18:00 +8°C° 0 mm 4 mps 752 mmHg 52%
    19:00 +8°C° 0 mm 3 mps 752 mmHg 56%
    20:00 +7°C° 0 mm 4 mps 752 mmHg 58%
    21:00 +6°C° 0 mm 4 mps 752 mmHg 59%
    22:00 +6°C° 0 mm 4 mps 752 mmHg 61%
    23:00 +6°C° 0 mm 4 mps 752 mmHg 62%

    26 September, Wednesday

    Time Temperature Precipitation Wind Pressure Humidity
    00:00 +6°C° 0 mm 5 mps 752 mmHg 63%
    01:00 +6°C° 0 mm 5 mps 751 mmHg 64%
    02:00 +6°C° 0 mm 5 mps 751 mmHg 64%
    03:00 +5°C° 0 mm 6 mps 751 mmHg 65%
    04:00 +5°C° 0 mm 6 mps 751 mmHg 66%
    05:00 +5°C° 0 mm 6 mps 750 mmHg 66%
    06:00 +6°C° 0 mm 7 mps 750 mmHg 66%
    07:00 +6°C° 0 mm 7 mps 750 mmHg 67%
    08:00 +8°C° 0.1 mm 7 mps 750 mmHg 67%
    09:00 +9°C° 0.1 mm 7 mps 750 mmHg 67%
    10:00 +10°C° 0.1 mm 7 mps 750 mmHg 67%
    11:00 +10°C° 0.1 mm 7 mps 750 mmHg 68%
    12:00 +11°C° 0.1 mm 6 mps 750 mmHg 68%
    13:00 +11°C° 0.1 mm 6 mps 750 mmHg 69%
    14:00 +12°C° 0 mm 5 mps 750 mmHg 68%
    15:00 +12°C° 0 mm 5 mps 750 mmHg 67%
    16:00 +13°C° 0 mm 4 mps 750 mmHg 67%
    17:00 +12°C° 0 mm 4 mps 750 mmHg 71%
    18:00 +11°C° 0 mm 3 mps 750 mmHg 75%
    19:00 +10°C° 0 mm 2 mps 750 mmHg 80%
    20:00 +10°C° 0 mm 2 mps 751 mmHg 80%
    21:00 +9°C° 0 mm 2 mps 751 mmHg 79%
    22:00 +9°C° 0 mm 2 mps 751 mmHg 79%
    23:00 +9°C° 0 mm 2 mps 750 mmHg 80%

    27 September, Thursday

    Time Temperature Precipitation Wind Pressure Humidity
    00:00 +9°C° 0 mm 2 mps 750 mmHg 81%
    01:00 +8°C° 0 mm 3 mps 750 mmHg 81%
    02:00 +8°C° 0 mm 3 mps 749 mmHg 82%
    03:00 +8°C° 0 mm 3 mps 749 mmHg 82%
    04:00 +7°C° 0 mm 3 mps 749 mmHg 83%
    05:00 +8°C° 0 mm 3 mps 749 mmHg 79%
    06:00 +9°C° 0 mm 3 mps 749 mmHg 74%
    07:00 +9°C° 0 mm 3 mps 748 mmHg 70%
    08:00 +11°C° 0 mm 4 mps 748 mmHg 62%
    09:00 +13°C° 0 mm 4 mps 748 mmHg 55%
    10:00 +15°C° 0 mm 4 mps 747 mmHg 47%
    11:00 +17°C° 0 mm 5 mps 747 mmHg 44%
    12:00 +19°C° 0 mm 5 mps 746 mmHg 40%
    13:00 +20°C° 0 mm 5 mps 746 mmHg 37%
    14:00 +19°C° 0 mm 5 mps 745 mmHg 39%
    15:00 +19°C° 0 mm 5 mps 745 mmHg 41%
    16:00 +19°C° 0 mm 4 mps 744 mmHg 42%
    17:00 +17°C° 0 mm 4 mps 744 mmHg 46%
    18:00 +15°C° 0 mm 4 mps 744 mmHg 50%
    19:00 +13°C° 0 mm 5 mps 744 mmHg 53%
    20:00 +13°C° 0 mm 5 mps 744 mmHg 54%
    21:00 +12°C° 0 mm 5 mps 743 mmHg 55%
    22:00 +12°C° 0 mm 5 mps 743 mmHg 56%
    23:00 +12°C° 0 mm 5 mps 743 mmHg 56%
    Show more